Tulsa Jones, OK

9:06 PM CST on November 20, 2017 (GMT -0600)
Jones Jr.

Weather History for KRVS - November, 2012

Change the Weather History Date:

Tuesday, November 6, 2012

  Actual Average (KTUL) Record (KTUL)
Temperature  
Mean Temperature 51 °F -  
Max Temperature 68 °F 61 °F 87 °F (1945)
Min Temperature 34 °F 39 °F 20 °F (1959)
Degree Days  
Heating Degree Days 14    
Growing Degree Days 1 (Base 50)    
Moisture  
Dew Point 34 °F    
Average Humidity 59    
Maximum Humidity 92    
Minimum Humidity 31    
Precipitation  
Precipitation 0.00 in - - ()
Sea Level Pressure  
Sea Level Pressure 30.12 in    
Wind  
Wind Speed 1 mph (WNW)    
Max Wind Speed 7 mph    
Max Gust Speed -    
Visibility 10 miles    
Events      
Averages and records for this station are not official NWS values.
T = Trace of Precipitation, MM = Missing Value Source: NWS Daily Summary

Daily Weather History Graph

Daily Weather History Graph

Search for Another Location

Airport or City:

Trip Planner

Search our weather history database for the weather conditions in past years. The results will help you decide how hot, cold, wet, or windy it might be!

Date:

Astronomy

Nov. 06, 2012 Rise Set
Actual Time 6:51 AM CST 5:22 PM CST
Civil Twilight 6:25 AM CST 5:49 PM CST
Nautical Twilight 5:54 AM CST 6:20 PM CST
Astronomical Twilight 5:24 AM CST 6:50 PM CST
Moon No Moon Rise 12:46 PM CST (11/6)
Length of Visible Light 11h 24m
Length of Day
10h 30m
Waning Gibbous, 53% of the Moon is Illuminated
Nov 6
Waning Gibbous
Nov 6
Last Quarter
Nov 13
New
Nov 20
First Quarter
Nov 28
Full

Hourly Weather History & Observations

Time (CST) Temp. Dew Point Humidity Pressure Visibility Wind Dir Wind Speed Gust Speed Precip Events Conditions
12:53 AM 43.0 °F 36.0 °F 76% 30.14 in 10.0 mi Calm Calm - N/A   Clear
1:53 AM 39.0 °F 36.0 °F 89% 30.12 in 10.0 mi Calm Calm - N/A   Clear
2:53 AM 37.0 °F 34.0 °F 89% 30.13 in 10.0 mi Calm Calm - N/A   Clear
3:53 AM 36.0 °F 33.1 °F 89% 30.13 in 8.0 mi Calm Calm - N/A   Clear
4:53 AM 36.0 °F 33.1 °F 89% 30.14 in 8.0 mi Calm Calm - N/A   Clear
5:53 AM 34.0 °F 32.0 °F 92% 30.13 in 7.0 mi Calm Calm - N/A   Clear
6:53 AM 35.1 °F 32.0 °F 89% 30.16 in 7.0 mi Calm Calm - N/A   Clear
7:53 AM 39.0 °F 35.1 °F 86% 30.17 in 10.0 mi Calm Calm - N/A   Clear
8:53 AM 45.0 °F 37.9 °F 76% 30.17 in 10.0 mi Calm Calm - N/A   Clear
9:53 AM 51.1 °F 37.9 °F 61% 30.14 in 10.0 mi SSW 4.6 mph - N/A   Clear
10:53 AM 55.9 °F 37.0 °F 49% 30.14 in 10.0 mi Variable 3.5 mph - N/A   Clear
11:53 AM 60.1 °F 37.0 °F 42% 30.11 in 10.0 mi West 4.6 mph - N/A   Clear
12:53 PM 63.0 °F 36.0 °F 37% 30.07 in 10.0 mi Variable 5.8 mph - N/A   Clear
1:53 PM 66.0 °F 37.0 °F 34% 30.07 in 10.0 mi Variable 6.9 mph - N/A   Clear
2:53 PM 66.9 °F 37.0 °F 33% 30.06 in 10.0 mi Variable 4.6 mph - N/A   Clear
3:53 PM 68.0 °F 36.0 °F 31% 30.06 in 10.0 mi Variable 4.6 mph - N/A   Clear
4:53 PM 66.9 °F 35.1 °F 31% 30.05 in 10.0 mi Variable 3.5 mph - N/A   Clear
5:53 PM 57.9 °F 37.0 °F 46% 30.08 in 10.0 mi NW 3.5 mph - N/A   Clear
6:53 PM 57.9 °F 32.0 °F 37% 30.10 in 10.0 mi NNW 3.5 mph - N/A   Clear
7:53 PM 59.0 °F 30.0 °F 33% 30.12 in 10.0 mi NW 3.5 mph - N/A   Clear
8:53 PM 55.0 °F 30.9 °F 40% 30.13 in 10.0 mi NW 3.5 mph - N/A   Clear
9:53 PM 53.1 °F 30.9 °F 43% 30.14 in 10.0 mi Calm Calm - N/A   Clear
10:53 PM 43.0 °F 32.0 °F 65% 30.14 in 10.0 mi Calm Calm - N/A   Clear
11:53 PM 42.1 °F 30.9 °F 65% 30.15 in 10.0 mi Calm Calm - N/A   Clear